FW4226 Weather Reports


time (UTC)temp
F
wind
direction
speed
knots
gust
knots
rain 1hr
in
rain 24hr
in
rain mn
in
humidity
%
barometer
mb
20260508024459 39 111 0.0 0.0 0.01 0.02 0.01 94 1016.5
20260508023959 39 111 0.0 0.0 0.01 0.02 0.01 94 1016.6
20260508023458 40 111 0.0 0.0 0.01 0.02 0.01 94 1016.7
20260508022959 40 111 0.0 0.0 0.01 0.02 0.01 94 1016.5
20260508022458 40 113 0.0 0.0 0.01 0.02 0.01 94 1016.6
20260508021958 40 113 0.0 0.0 0.01 0.02 0.01 94 1016.6
20260508021458 40 113 0.0 0.0 0.01 0.02 0.01 94 1016.5
20260508020957 40 121 0.0 0.0 0.01 0.02 0.01 94 1016.6
20260508020458 40 121 0.0 0.0 0.01 0.02 0.01 94 1016.6
20260508020004 40 121 0.0 0.0 0.01 0.02 0.01 94 1016.6
20260508014458 40 121 0.0 0.0 0.00 0.01 0.00 94 1016.6
20260508013958 40 121 0.0 0.0 0.00 0.01 0.00 94 1016.6
20260508013458 41 121 0.0 0.0 0.00 0.01 0.00 94 1016.7
20260508012457 41 121 0.0 0.0 0.00 0.01 0.00 94 1016.7
20260508011959 41 121 0.0 0.0 0.00 0.01 0.00 94 1016.7
20260508011457 41 121 0.0 0.0 0.00 0.01 0.00 94 1016.7
20260508010959 42 121 0.0 0.0 0.00 0.01 0.00 94 1016.7
20260508010004 42 121 0.0 0.0 0.00 0.01 0.00 94 1016.8
20260508005457 42 121 0.0 0.0 0.00 0.01 0.00 94 1016.8
20260508004500 42 121 0.0 0.0 0.00 0.01 0.00 94 1016.7
20260508003958 43 121 0.0 0.0 0.00 0.01 0.00 94 1016.7
20260508003457 43 121 0.0 0.0 0.00 0.01 0.00 94 1016.7
20260508002957 43 121 0.0 0.0 0.00 0.01 0.00 93 1016.8
20260508002456 43 121 0.0 0.0 0.00 0.01 0.00 94 1016.8
20260508001957 43 121 0.0 0.0 0.00 0.01 0.00 94 1016.8
20260508001457 44 121 0.0 0.0 0.00 0.01 0.00 94 1016.8
20260508000957 44 121 0.0 0.0 0.00 0.01 0.00 93 1016.9
20260508000001 44 121 0.0 0.0 0.00 0.01 0.00 93 1016.9
20260507235457 44 121 0.0 0.0 0.00 0.01 0.00 93 1016.9
20260507235002 44 121 0.0 0.0 0.00 0.01 0.00 92 1017.0
20260507234501 45 121 0.0 0.0 0.00 0.01 0.00 93 1016.9
20260507234002 45 121 0.0 0.0 0.00 0.01 0.00 92 1017.0
20260507233501 46 121 0.0 0.0 0.00 0.01 0.00 92 1017.0
20260507233002 46 121 0.0 0.0 0.00 0.01 0.00 92 1016.9
20260507232501 47 121 0.0 0.0 0.00 0.01 0.00 93 1016.9
20260507232002 47 121 0.0 0.0 0.00 0.01 0.00 93 1016.9
20260507231502 47 121 0.0 0.0 0.00 0.01 0.00 93 1016.8
20260507231003 47 121 0.0 0.0 0.00 0.01 0.00 93 1016.8
20260507230502 47 121 0.0 0.0 0.00 0.01 0.00 93 1016.9
20260507225502 47 121 0.0 0.0 0.00 0.01 0.01 92 1016.9
20260507225003 48 121 0.0 0.0 0.00 0.01 0.01 92 1016.9
20260507224502 48 121 0.0 0.0 0.00 0.01 0.01 92 1016.9
20260507224003 48 121 0.0 0.0 0.00 0.01 0.01 92 1017.0
20260507223502 48 121 0.0 0.0 0.00 0.01 0.01 92 1017.0
20260507223003 48 121 0.0 0.0 0.00 0.01 0.01 92 1017.1
20260507222503 48 121 0.0 0.0 0.00 0.01 0.01 91 1017.1
20260507222002 48 121 0.0 0.0 0.00 0.01 0.01 91 1017.1
20260507221501 48 121 0.0 0.0 0.00 0.01 0.01 91 1017.2
20260507220502 49 121 0.0 0.0 0.00 0.01 0.01 91 1017.1
20260507220007 49 121 0.0 0.0 0.00 0.01 0.01 90 1017.1
20260507215001 49 121 0.0 0.0 0.01 0.01 0.01 90 1017.2
20260507214502 49 121 0.0 0.0 0.01 0.01 0.01 89 1017.2
20260507214001 50 121 0.0 0.0 0.01 0.01 0.01 89 1017.1
20260507213501 50 121 0.0 0.0 0.01 0.01 0.01 89 1017.3
20260507213005 50 121 0.0 0.0 0.01 0.01 0.01 88 1017.2
20260507212500 50 121 0.0 0.0 0.01 0.01 0.01 88 1017.1
20260507212001 51 121 0.0 0.0 0.01 0.01 0.01 87 1017.0
20260507211500 51 121 0.0 0.0 0.01 0.01 0.01 87 1017.1
20260507210500 51 121 0.0 0.0 0.01 0.01 0.01 84 1017.0
20260507210006 52 121 0.0 0.0 0.01 0.01 0.01 83 1016.9
20260507205501 52 121 0.0 0.0 0.00 0.00 0.00 82 1016.9
20260507205000 53 121 0.0 0.0 0.00 0.00 0.00 81 1016.9
20260507204505 53 121 0.0 0.0 0.00 0.00 0.00 80 1016.8
20260507204000 53 121 0.0 0.0 0.00 0.00 0.00 80 1016.7
20260507203500 53 120 0.0 0.0 0.00 0.00 0.00 79 1016.7
20260507203001 53 126 0.0 0.9 0.00 0.00 0.00 79 1016.7
20260507202501 53 127 0.0 0.9 0.00 0.00 0.00 79 1016.6
20260507202001 53 126 0.0 0.9 0.00 0.00 0.00 79 1016.5
20260507200501 54 97 0.0 2.6 0.00 0.00 0.00 76 1016.3
20260507200005 54 146 0.9 2.6 0.00 0.00 0.00 74 1016.2
20260507195500 54 130 0.9 3.5 0.00 0.00 0.00 74 1016.2
20260507195001 54 204 0.9 3.5 0.00 0.00 0.00 73 1016.2
20260507194501 54 190 0.9 3.5 0.00 0.00 0.00 73 1016.0
20260507194000 54 142 0.9 3.5 0.00 0.00 0.00 73 1016.0
20260507193501 54 158 0.9 3.5 0.00 0.00 0.00 74 1016.0
20260507193003 54 149 0.9 4.3 0.00 0.00 0.00 74 1016.0
20260507192500 54 133 0.9 4.3 0.00 0.00 0.00 73 1015.9
20260507192000 55 185 0.9 3.5 0.00 0.00 0.00 73 1015.9
20260507191001 55 169 0.9 2.6 0.00 0.00 0.00 71 1015.9
20260507190501 55 129 1.7 3.5 0.00 0.00 0.00 70 1015.8
20260507190006 55 168 1.7 5.2 0.00 0.00 0.00 69 1015.8
20260507184501 55 180 0.9 3.5 0.00 0.00 0.00 68 1015.7
20260507184003 55 146 0.9 3.5 0.00 0.00 0.00 68 1015.7
20260507183500 56 161 1.7 3.5 0.00 0.00 0.00 67 1015.8
20260507183001 56 145 1.7 4.3 0.00 0.00 0.00 67 1015.8
20260507182500 56 166 1.7 4.3 0.00 0.00 0.00 66 1015.8
20260507182001 56 158 1.7 4.3 0.00 0.00 0.00 66 1015.7
20260507181501 56 195 1.7 4.3 0.00 0.00 0.00 66 1015.7
20260507180500 56 142 1.7 6.1 0.00 0.00 0.00 66 1015.6
20260507180004 56 106 1.7 5.2 0.00 0.00 0.00 66 1015.5
20260507175500 56 139 0.9 5.2 0.00 0.00 0.00 65 1015.5
20260507175000 57 86 1.7 4.3 0.00 0.00 0.00 64 1015.5
20260507174502 57 64 2.6 5.2 0.00 0.00 0.00 64 1015.4
20260507173501 57 168 1.7 4.3 0.00 0.00 0.00 63 1015.4
20260507173001 57 175 1.7 4.3 0.00 0.00 0.00 63 1015.4
20260507172500 57 180 1.7 4.3 0.00 0.00 0.00 61 1015.4
20260507172001 58 151 1.7 4.3 0.00 0.00 0.00 60 1015.4
20260507171502 58 143 1.7 4.3 0.00 0.00 0.00 60 1015.4
20260507171001 58 115 1.7 4.3 0.00 0.00 0.00 59 1015.4
20260507170500 58 167 1.7 4.3 0.00 0.00 0.00 59 1015.4
20260507165500 58 147 1.7 5.2 0.00 0.00 0.00 57 1015.4
20260507165001 59 116 1.7 5.2 0.00 0.00 0.00 57 1015.4
20260507164500 59 138 0.9 3.5 0.00 0.00 0.00 56 1015.4
20260507163004 59 122 1.7 3.5 0.00 0.00 0.00 56 1015.5
20260507162501 60 141 1.7 6.1 0.00 0.00 0.00 54 1015.4
20260507162000 60 157 0.9 6.1 0.00 0.00 0.00 52 1015.4
20260507161500 60 114 0.9 4.3 0.00 0.00 0.00 53 1015.3
20260507161000 60 131 0.9 4.3 0.00 0.00 0.00 55 1015.4
20260507160501 60 147 1.7 4.3 0.00 0.00 0.00 53 1015.4
20260507155001 60 147 0.0 1.7 0.00 0.00 0.00 50 1015.5
20260507154501 61 154 0.0 1.7 0.00 0.00 0.00 51 1015.4
20260507154005 61 204 0.9 3.5 0.00 0.00 0.00 52 1015.5
20260507153501 61 323 1.7 4.3 0.00 0.00 0.00 48 1015.4
20260507153001 61 179 1.7 4.3 0.00 0.00 0.00 49 1015.4
20260507152501 61 150 0.9 3.5 0.00 0.00 0.00 50 1015.3
20260507152001 61 156 0.9 3.5 0.00 0.00 0.00 52 1015.4
20260507151500 61 74 0.9 2.6 0.00 0.00 0.00 53 1015.5
20260507151001 60 128 1.7 4.3 0.00 0.00 0.00 52 1015.5
20260507150500 60 171 0.9 4.3 0.00 0.00 0.00 51 1015.6
20260507150006 61 100 0.9 3.5 0.00 0.00 0.00 52 1015.4
20260507145501 60 141 0.0 1.7 0.00 0.00 0.00 47 1015.4
20260507145001 60 42 0.0 0.9 0.00 0.00 0.00 48 1015.6
20260507144501 60 143 0.0 1.7 0.00 0.00 0.00 50 1015.5
20260507144002 60 153 0.0 1.7 0.00 0.00 0.00 50 1015.5
20260507143501 60 160 0.0 0.9 0.00 0.00 0.00 50 1015.5
20260507142501 60 135 0.9 1.7 0.00 0.00 0.00 47 1015.6
20260507142000 60 199 0.0 1.7 0.00 0.00 0.00 47 1015.6
20260507141501 60 4 0.0 0.9 0.00 0.00 0.00 48 1015.7
20260507140501 60 5 0.0 1.7 0.00 0.00 0.00 47 1015.7
20260507140006 61 144 0.0 1.7 0.00 0.00 0.00 48 1015.7
20260507135459 61 249 0.9 1.7 0.00 0.00 0.00 49 1015.8
20260507135001 60 220 0.9 4.3 0.00 0.00 0.00 48 1015.8
20260507134500 61 178 0.9 4.3 0.00 0.00 0.00 48 1015.9
20260507134000 61 138 0.0 2.6 0.00 0.00 0.00 46 1015.8
20260507133502 61 206 0.9 2.6 0.00 0.00 0.00 48 1015.8
20260507132501 62 218 0.0 2.6 0.00 0.00 0.00 47 1015.8
20260507132001 61 178 0.9 4.3 0.00 0.00 0.00 48 1015.8
20260507131000 61 131 0.9 2.6 0.00 0.00 0.00 50 1015.9
20260507130500 59 145 0.9 2.6 0.00 0.00 0.00 51 1015.9
20260507130004 59 131 0.9 2.6 0.00 0.00 0.00 52 1016.0
20260507125459 58 228 0.0 0.0 0.00 0.00 0.00 53 1016.0
20260507125000 58 228 0.0 0.0 0.00 0.00 0.00 55 1016.1
20260507124500 58 147 0.0 0.0 0.00 0.00 0.00 53 1016.1
20260507124000 58 147 0.0 0.0 0.00 0.00 0.00 55 1016.1
20260507123459 58 147 0.0 0.0 0.00 0.00 0.00 56 1016.1
20260507122959 58 147 0.0 0.9 0.00 0.00 0.00 56 1016.2
20260507122500 58 7 0.0 0.9 0.00 0.00 0.00 52 1016.2
20260507121959 59 28 0.0 0.9 0.00 0.00 0.00 52 1016.2
20260507121000 59 166 1.7 4.3 0.00 0.00 0.00 55 1016.2
20260507120459 59 52 0.9 4.3 0.00 0.00 0.00 56 1016.1
20260507120004 58 140 0.9 2.6 0.00 0.00 0.00 55 1016.2
20260507115500 57 180 0.0 1.7 0.00 0.00 0.00 55 1016.2
20260507115001 57 88 0.0 0.0 0.00 0.00 0.00 58 1016.2
20260507114502 57 88 0.0 0.0 0.00 0.00 0.00 59 1016.2
20260507114001 57 88 0.0 0.0 0.00 0.00 0.00 56 1016.1
20260507113501 57 133 0.0 0.0 0.00 0.00 0.00 56 1016.2
20260507113001 57 255 0.0 3.5 0.00 0.00 0.00 55 1016.3
20260507112501 57 19 0.9 3.5 0.00 0.00 0.00 58 1016.3
20260507112001 57 114 1.7 3.5 0.00 0.00 0.00 55 1016.5
20260507111500 58 148 1.7 3.5 0.00 0.00 0.00 57 1016.3
20260507111004 58 166 0.9 3.5 0.00 0.00 0.00 55 1016.3
20260507110502 58 211 0.0 0.0 0.00 0.00 0.00 57 1016.4
20260507110003 58 123 0.9 3.5 0.00 0.00 0.00 56 1016.5
20260507105459 58 83 1.7 3.5 0.00 0.00 0.00 54 1016.4
20260507104459 59 165 0.9 3.5 0.00 0.00 0.00 54 1016.4
20260507103959 59 152 0.9 3.5 0.00 0.00 0.00 53 1016.4
20260507103458 58 81 0.9 4.3 0.00 0.00 0.00 57 1016.5
20260507102959 57 120 1.7 4.3 0.00 0.00 0.00 61 1016.5
20260507102459 57 232 0.9 2.6 0.00 0.00 0.00 63 1016.5
20260507101959 57 143 1.7 3.5 0.00 0.00 0.00 65 1016.6
20260507101458 56 133 1.7 4.3 0.00 0.00 0.00 63 1016.7
20260507100959 57 151 0.9 4.3 0.00 0.00 0.00 62 1016.6
20260507100459 57 135 0.9 2.6 0.00 0.00 0.00 65 1016.7
20260507100005 56 164 0.9 2.6 0.00 0.00 0.00 63 1016.6
20260507095458 55 114 0.9 1.7 0.00 0.00 0.00 66 1016.6
20260507094959 54 190 0.0 1.7 0.00 0.00 0.00 70 1016.6
20260507094459 54 139 0.0 1.7 0.00 0.00 0.00 71 1016.6
20260507093959 54 216 0.0 2.6 0.00 0.00 0.00 71 1016.8
20260507092959 55 260 0.9 1.7 0.00 0.00 0.00 69 1016.7
20260507092459 55 201 0.9 2.6 0.00 0.00 0.00 67 1016.6
20260507091959 55 95 1.7 2.6 0.00 0.00 0.00 70 1016.7
20260507091458 54 173 1.7 5.2 0.00 0.00 0.00 70 1016.7
20260507090003 53 63 0.9 3.5 0.00 0.00 0.00 76 1016.7
20260507084958 51 143 0.0 0.9 0.00 0.00 0.00 79 1016.7
20260507084459 51 143 0.0 2.6 0.00 0.00 0.00 80 1016.8
20260507084000 51 143 0.9 2.6 0.00 0.00 0.00 80 1016.7
20260507082959 52 166 0.9 2.6 0.00 0.00 0.00 81 1016.8
20260507082459 51 58 0.0 1.7 0.00 0.00 0.00 83 1016.6
20260507081959 50 107 0.0 0.0 0.00 0.00 0.00 87 1016.8
20260507081459 49 90 0.0 0.0 0.00 0.00 0.00 88 1016.7
20260507080958 49 90 0.0 0.0 0.00 0.00 0.00 89 1016.7
20260507080459 49 90 0.0 0.0 0.00 0.00 0.00 89 1016.7
20260507080004 49 90 0.0 0.0 0.00 0.00 0.00 89 1016.7
20260507075459 49 21 0.0 0.0 0.00 0.00 0.00 92 1016.6
20260507074959 48 31 0.0 0.0 0.00 0.00 0.00 94 1016.6
20260507074500 47 31 0.0 0.0 0.00 0.00 0.00 93 1016.6
20260507073959 46 31 0.0 0.0 0.00 0.00 0.00 93 1016.7
20260507073458 46 31 0.0 0.0 0.00 0.00 0.00 93 1016.5
20260507072958 46 31 0.0 0.0 0.00 0.00 0.00 93 1016.6
20260507072459 46 31 0.0 0.0 0.00 0.00 0.00 94 1016.6
20260507071000 45 31 0.0 0.0 0.00 0.00 0.00 95 1016.6
20260507070458 45 31 0.0 0.0 0.00 0.00 0.00 95 1016.6
20260507065001 43 22 0.0 0.0 0.00 0.00 0.00 95 1016.7
20260507064459 43 22 0.0 0.0 0.00 0.00 0.00 95 1016.6
20260507062959 42 22 0.0 0.0 0.00 0.00 0.00 95 1016.6
20260507062459 42 22 0.0 0.0 0.00 0.00 0.00 95 1016.6
20260507062001 41 22 0.0 0.0 0.00 0.00 0.00 95 1016.5
20260507061459 41 22 0.0 0.0 0.00 0.00 0.00 95 1016.5
20260507061000 40 22 0.0 0.0 0.00 0.00 0.00 95 1016.4
20260507060459 40 22 0.0 0.0 0.00 0.00 0.00 95 1016.3
20260507060001 39 22 0.0 0.0 0.00 0.00 0.00 95 1016.3
20260507055457 39 22 0.0 0.0 0.00 0.00 0.00 95 1016.4
20260507054958 39 22 0.0 0.0 0.00 0.00 0.00 95 1016.4
20260507054457 38 22 0.0 0.0 0.00 0.00 0.00 95 1016.4
20260507053958 38 22 0.0 0.0 0.00 0.00 0.00 95 1016.3
20260507053458 38 22 0.0 0.0 0.00 0.00 0.00 95 1016.3
20260507053003 37 22 0.0 0.0 0.00 0.00 0.00 95 1016.3
20260507052458 37 22 0.0 0.0 0.00 0.00 0.00 95 1016.2
20260507051959 37 22 0.0 0.0 0.00 0.00 0.00 95 1016.3
20260507051500 36 22 0.0 0.0 0.00 0.00 0.00 95 1016.2
20260507050959 36 22 0.0 0.0 0.00 0.00 0.00 95 1016.3
20260507050500 36 22 0.0 0.0 0.00 0.00 0.00 95 1016.2
20260507050006 35 22 0.0 0.0 0.00 0.00 0.00 95 1016.2
20260507045000 35 22 0.0 0.0 0.00 0.00 0.00 95 1016.0
20260507043957 33 22 0.0 0.0 0.00 0.00 0.00 94 1016.0
20260507043458 33 22 0.0 0.0 0.00 0.00 0.00 94 1016.0
20260507042958 33 22 0.0 0.0 0.00 0.00 0.00 93 1015.9
20260507042457 33 22 0.0 0.0 0.00 0.00 0.00 93 1015.9
20260507041958 33 22 0.0 0.0 0.00 0.00 0.00 93 1016.0
20260507041458 33 22 0.0 0.0 0.00 0.00 0.00 93 1016.0
20260507040957 33 22 0.0 0.0 0.00 0.00 0.00 93 1016.0
20260507040458 33 22 0.0 0.0 0.00 0.00 0.00 93 1015.9
20260507034958 34 22 0.0 0.0 0.00 0.00 0.00 93 1016.0
20260507034458 34 22 0.0 0.0 0.00 0.00 0.00 93 1016.1
20260507033959 34 22 0.0 0.0 0.00 0.00 0.00 93 1016.1
20260507033458 34 22 0.0 0.0 0.00 0.00 0.00 93 1016.0
20260507032458 34 22 0.0 0.0 0.00 0.00 0.00 92 1016.1
20260507031958 35 22 0.0 0.0 0.00 0.00 0.00 92 1016.1
20260507031458 35 22 0.0 0.0 0.00 0.00 0.00 92 1016.2
20260507030959 35 22 0.0 0.0 0.00 0.00 0.00 92 1016.2
20260507030457 36 22 0.0 0.0 0.00 0.00 0.00 92 1016.1
20260507025458 36 22 0.0 0.0 0.00 0.00 0.00 92 1016.1
20260507024957 36 22 0.0 0.0 0.00 0.00 0.00 92 1016.0